Weather History for Charlevoix, MI

Change the Weather History Date:

Wednesday, February 19, 2014

  Actual Average Record
Temperature  
Mean Temperature 28 °F -  
Max Temperature 37 °F 32 °F 41 °F (2002)
Min Temperature 20 °F 20 °F 10 °F (2006)
Degree Days  
Heating Degree Days 36    
Moisture  
Dew Point 23 °F    
Average Humidity 77    
Maximum Humidity 99    
Minimum Humidity 53    
Precipitation  
Precipitation 0.00 in - - ()
Sea Level Pressure  
Sea Level Pressure 29.76 in    
Wind  
Wind Speed 8 mph (WSW)    
Max Wind Speed 17 mph    
Max Gust Speed 23 mph    
Visibility 7 miles    
Events Fog , Snow    
Averages and records for this station are not official NWS values.
T = Trace of Precipitation, MM = Missing Value Source: NWS Daily Summary

Daily Weather History Graph

Daily Weather History Graph

Search for Another Location

Airport:

Trip Planner

Search our weather history database for the weather conditions in past years. The results will help you decide how hot, cold, wet, or windy it might be!

Date:

Astronomy

Feb. 19, 2014 Rise Set
Actual Time 7:36 AM EST 6:14 PM EST
Civil Twilight 7:06 AM EST 6:44 PM EST
Nautical Twilight 6:31 AM EST 7:18 PM EST
Astronomical Twilight 5:57 AM EST 7:53 PM EST
Moon 11:22 PM EST (2/19) 9:27 AM EST (2/19)
Length of Visible Light 11h 38m
Length of Day
10h 38m
Waning Gibbous, 80% of the Moon is Illuminated
Feb 19
Waning Gibbous
Feb 22
Last Quarter
Mar 1
New
Mar 8
First Quarter
Mar 16
Full

Hourly Weather History & Observations

Time (EST) Temp. Windchill Dew Point Humidity Pressure Visibility Wind Dir Wind Speed Gust Speed Precip Events Conditions
12:14 AM 31.1 °F 23.1 °F 26.8 °F 84% 29.58 in 7.0 mi West 9.2 mph - N/A   Mostly Cloudy
12:35 AM 30.2 °F 21.9 °F 26.6 °F 86% 29.59 in 7.0 mi West 9.2 mph - N/A   Mostly Cloudy
12:55 AM 29.3 °F 20.8 °F 25.7 °F 86% 29.60 in 7.0 mi West 9.2 mph - N/A   Overcast
1:14 AM 28.9 °F 21.9 °F 25.7 °F 88% 29.60 in 7.0 mi West 6.9 mph - N/A   Overcast
1:35 AM 28.9 °F 21.9 °F 25.7 °F 88% 29.60 in 7.0 mi West 6.9 mph - N/A   Overcast
1:54 AM 28.6 °F 23.5 °F 25.5 °F 88% 29.60 in 7.0 mi West 4.6 mph - N/A   Overcast
2:14 AM 28.0 °F 22.8 °F 25.2 °F 89% 29.61 in 7.0 mi WSW 4.6 mph - N/A   Overcast
2:35 AM 26.4 °F 18.9 °F 24.1 °F 91% 29.61 in 5.0 mi West 6.9 mph - N/A   Scattered Clouds
2:54 AM 25.7 °F 19.0 °F 24.1 °F 94% 29.61 in 5.0 mi West 5.8 mph - N/A   Clear
3:14 AM 26.6 °F 21.2 °F 25.3 °F 95% 29.62 in 5.0 mi WSW 4.6 mph - N/A   Mostly Cloudy
3:35 AM 25.9 °F 21.7 °F 24.6 °F 95% 29.62 in 5.0 mi West 3.5 mph - N/A   Scattered Clouds
3:54 AM 27.1 °F 21.8 °F 26.2 °F 96% 29.62 in 5.0 mi WSW 4.6 mph - N/A   Overcast
4:14 AM 26.2 °F 19.6 °F 25.3 °F 96% 29.61 in 5.0 mi WSW 5.8 mph - N/A   Mostly Cloudy
4:35 AM 25.5 °F 19.9 °F 24.8 °F 97% 29.62 in 4.0 mi WSW 4.6 mph - N/A   Clear
4:54 AM 24.6 °F 18.8 °F 23.9 °F 97% 29.62 in 4.0 mi WSW 4.6 mph - N/A   Clear
5:15 AM 25.5 °F 19.9 °F 25.2 °F 99% 29.62 in 3.0 mi WSW 4.6 mph - N/A   Scattered Clouds
5:34 AM 24.3 °F 18.4 °F 23.9 °F 99% 29.62 in 2.5 mi WSW 4.6 mph - N/A   Mist
5:55 AM 23.5 °F 19.1 °F 23.2 °F 99% 29.63 in 1.2 mi WSW 3.5 mph - N/A   Mist
6:14 AM 22.5 °F - 22.1 °F 99% 29.64 in 0.5 mi Calm Calm - N/A Fog Light Freezing Fog
6:34 AM 20.7 °F - 19.9 °F 97% 29.64 in 0.5 mi Calm Calm - N/A Fog Light Freezing Fog
6:55 AM 20.8 °F 16.0 °F 20.3 °F 98% 29.65 in 0.2 mi West 3.5 mph - N/A Fog Light Freezing Fog
7:14 AM 20.3 °F 13.8 °F 19.9 °F 99% 29.65 in 0.2 mi West 4.6 mph - N/A Fog Light Freezing Fog
7:35 AM 24.1 °F 15.2 °F 23.9 °F 99% 29.66 in 0.2 mi West 8.1 mph - N/A Fog Light Freezing Fog
7:55 AM 23.5 °F 16.4 °F 23.0 °F 98% 29.67 in 1.0 mi WSW 5.8 mph - N/A   Overcast
8:14 AM 23.2 °F 17.2 °F 23.0 °F 99% 29.68 in 1.5 mi West 4.6 mph - N/A   Mist
8:35 AM 23.0 °F - 22.8 °F 99% 29.68 in 1.8 mi Calm Calm - N/A   Mist
8:55 AM 23.9 °F - 23.7 °F 99% 29.69 in 2.0 mi Calm Calm - N/A   Clear
9:14 AM 23.9 °F - 23.5 °F 99% 29.70 in 2.0 mi Calm Calm - N/A   Clear
9:35 AM 24.8 °F 17.9 °F 24.6 °F 99% 29.71 in 3.0 mi WSW 5.8 mph - N/A   Clear
9:54 AM 26.4 °F 19.8 °F 26.2 °F 99% 29.71 in 4.0 mi SW 5.8 mph - N/A   Clear
10:15 AM 28.9 °F 21.9 °F 27.5 °F 94% 29.72 in 5.0 mi SW 6.9 mph - N/A   Clear
10:35 AM 31.6 °F 24.4 °F 27.5 °F 85% 29.74 in 7.0 mi WSW 8.1 mph - N/A   Clear
10:54 AM 32.7 °F 23.9 °F 26.8 °F 79% 29.74 in 7.0 mi WSW 11.5 mph - N/A   Clear
11:15 AM 33.8 °F 24.8 °F 26.4 °F 74% 29.75 in 7.0 mi WSW 12.7 mph 17.3 mph N/A   Clear
11:34 AM 34.0 °F 26.0 °F 26.2 °F 73% 29.75 in 5.0 mi WSW 10.4 mph 20.7 mph N/A Snow Light Snow
11:54 AM 34.5 °F 25.3 °F 25.2 °F 69% 29.77 in 10.0 mi WSW 13.8 mph - N/A   Clear
12:15 PM 34.2 °F 23.6 °F 25.2 °F 70% 29.77 in 1.2 mi WSW 17.3 mph - N/A Snow Light Snow
12:34 PM 33.8 °F 23.2 °F 25.2 °F 71% 29.78 in 1.8 mi West 17.3 mph 23.0 mph N/A Snow Light Snow
12:55 PM 33.3 °F 24.6 °F 24.6 °F 71% 29.78 in 3.0 mi West 11.5 mph 21.9 mph N/A   Haze
1:14 PM 33.8 °F 23.2 °F 24.8 °F 70% 29.78 in 7.0 mi WSW 17.3 mph - N/A   Clear
1:34 PM 34.0 °F 24.6 °F 24.8 °F 69% 29.79 in 7.0 mi West 13.8 mph 20.7 mph N/A   Clear
1:55 PM 34.3 °F 25.0 °F 24.8 °F 68% 29.79 in 10.0 mi West 13.8 mph 17.3 mph N/A   Clear
2:14 PM 35.1 °F 25.9 °F 23.9 °F 64% 29.79 in 10.0 mi WSW 13.8 mph - N/A   Clear
2:34 PM 35.8 °F 26.9 °F 23.4 °F 61% 29.80 in 10.0 mi WSW 13.8 mph 18.4 mph N/A   Clear
2:55 PM 36.7 °F 29.4 °F 22.3 °F 56% 29.80 in 10.0 mi WSW 10.4 mph - N/A   Clear
3:14 PM 36.9 °F 29.6 °F 23.9 °F 59% 29.81 in 10.0 mi SSW 10.4 mph 17.3 mph N/A   Clear
3:35 PM 36.1 °F 28.7 °F 23.7 °F 61% 29.81 in 10.0 mi SW 10.4 mph - N/A   Clear
3:55 PM 36.9 °F 30.7 °F 23.0 °F 57% 29.82 in 10.0 mi SW 8.1 mph - N/A   Clear
4:14 PM 37.2 °F 30.0 °F 22.6 °F 56% 29.83 in 10.0 mi SW 10.4 mph - N/A   Clear
4:35 PM 36.7 °F 29.9 °F 22.5 °F 56% 29.85 in 10.0 mi SSW 9.2 mph - N/A   Clear
4:55 PM 36.5 °F 28.7 °F 21.7 °F 55% 29.86 in 10.0 mi WSW 11.5 mph - N/A   Clear
5:14 PM 36.5 °F 29.7 °F 21.0 °F 54% 29.87 in 10.0 mi WSW 9.2 mph - N/A   Clear
5:35 PM 36.0 °F 29.0 °F 20.5 °F 53% 29.88 in 10.0 mi SW 9.2 mph - N/A   Clear
5:54 PM 34.7 °F 26.9 °F 21.2 °F 58% 29.88 in 10.0 mi SW 10.4 mph - N/A   Clear
6:14 PM 33.4 °F 26.6 °F 21.4 °F 61% 29.89 in 10.0 mi SW 8.1 mph - N/A   Clear
6:35 PM 32.4 °F 26.0 °F 21.9 °F 65% 29.89 in 10.0 mi SW 6.9 mph - N/A   Clear
6:54 PM 32.0 °F 28.7 °F 21.2 °F 64% 29.91 in 10.0 mi South 3.5 mph - N/A   Clear
7:14 PM 31.3 °F 24.7 °F 21.0 °F 66% 29.91 in 10.0 mi South 6.9 mph - N/A   Clear
7:35 PM 32.4 °F 26.0 °F 18.3 °F 56% 29.91 in 10.0 mi SW 6.9 mph - N/A   Clear
7:54 PM 32.7 °F 24.5 °F 18.7 °F 56% 29.91 in 10.0 mi SSW 10.4 mph - N/A   Clear
8:15 PM 32.2 °F 24.4 °F 19.2 °F 59% 29.91 in 10.0 mi SSW 9.2 mph - N/A   Clear
8:35 PM 32.5 °F 24.8 °F 19.9 °F 60% 29.92 in 10.0 mi SSW 9.2 mph - N/A   Clear
8:54 PM 32.4 °F 24.0 °F 20.1 °F 61% 29.92 in 10.0 mi SSW 10.4 mph 16.1 mph N/A   Clear
9:15 PM 32.2 °F 23.2 °F 20.3 °F 62% 29.92 in 10.0 mi SSW 11.5 mph - N/A   Clear
9:35 PM 32.2 °F 23.8 °F 20.5 °F 62% 29.92 in 10.0 mi SSW 10.4 mph 17.3 mph N/A   Clear
9:54 PM 32.2 °F 23.8 °F 20.8 °F 63% 29.92 in 10.0 mi SSW 10.4 mph 16.1 mph N/A   Clear
10:15 PM 32.4 °F 24.0 °F 20.8 °F 63% 29.92 in 10.0 mi SSW 10.4 mph - N/A   Clear
10:35 PM 32.2 °F 24.4 °F 20.7 °F 63% 29.92 in 10.0 mi SSW 9.2 mph - N/A   Clear
10:54 PM 32.0 °F 24.8 °F 20.8 °F 63% 29.92 in 10.0 mi SSW 8.1 mph - N/A   Clear
11:15 PM 32.2 °F 24.4 °F 20.8 °F 63% 29.92 in 10.0 mi SSW 9.2 mph - N/A   Clear
11:34 PM 32.4 °F 24.0 °F 20.8 °F 63% 29.92 in 10.0 mi SSW 10.4 mph - N/A   Clear
11:54 PM 32.4 °F 26.0 °F 20.7 °F 62% 29.92 in 10.0 mi SSW 6.9 mph - N/A   Clear